Regional Weather Roundup
Issued by NWS Midland/Odessa, TX

Skip options and go directly to product.
Home | Oldest Version | Previous Version | Current Version | All | Graphics & Text | Save Text | Print | Product List | Glossary On

Skip product version selection by date and time.   
156
ASUS44 KMAF 011210
RWRMAF
MIDLAND AREA WEATHER ROUNDUP
NATIONAL WEATHER SERVICE MIDLAND TX
700 AM CDT SAT OCT 01 2016

...IN SOUTHWEST TEXAS AND SOUTHEAST NEW MEXICO...

CITY           SKY/WX    TMP DP  RH WIND       PRES   REMARKS
ALPINE         PTCLDY    60  56  88 SW6       30.23R
ANDREWS        FAIR      54  54 100 CALM      30.11S
ARTESIA        CLEAR     55  55 100 S7        30.10R
BIG SPRING     CLOUDY    62  54  75 E3        30.13R
CARLSBAD       CLEAR     54  53  97 CALM      30.08R
DRYDEN           N/A     65  60  84 N5        30.07R
FORT STOCKTON  CLOUDY    63  58  83 S7        30.08S
GUAD PASS      FOG       58  58 100 W13       30.21R VSB 1/4
HOBBS          MOCLDY    55  55 100 CALM      30.13R
MARFA          CLEAR     54  53  97 CALM      30.21S FOG
MIDLAND AIRPK  CLOUDY    62  54  75 E3        30.12R
MIDLAND INTL   CLOUDY    62  54  74 SE7       30.10R
ODESSA         CLOUDY    62  54  74 SE6       30.11R
PECOS          CLEAR     62  58  88 CALM      30.07R
PRESIDIO       FAIR      68  64  86 CALM      30.10R
SEMINOLE       MOCLDY    56  53  90 CALM      30.12S
SNYDER           N/A     62  52  71 S3        30.11S
WINK           CLEAR     62  55  77 SE8       30.07R
$$
...OTHER STATIONS IN TEXAS...

CITY           SKY/WX    TMP DP  RH WIND       PRES   REMARKS
ABILENE        CLOUDY    59  53  80 SE7       30.11R
AMARILLO       CLEAR     56  49  77 SE12      30.11F
AUSTIN         CLOUDY    57  55  93 CALM      30.10R
BROWNSVILLE    CLOUDY    70  67  90 CALM      30.02R
CORPUS CHRISTI CLOUDY    66  62  87 N5        30.05R
DALLAS FTW     MOCLDY    63  54  72 CALM      30.09R
DEL RIO        MOCLDY    65  56  72 E9        30.06R
EL PASO        PTCLDY    63  58  83 SE8       30.13R
HOUSTON INT    MOCLDY    61  58  90 CALM      30.08R
LUBBOCK        MOCLDY    57  53  86 SE6       30.11S
SAN ANGELO     PTCLDY    58  56  93 CALM      30.10R
SAN ANTONIO    CLOUDY    61  56  83 NW3       30.10R
WACO           CLOUDY    56  54  93 W3        30.10R
WICHITA FALLS  NOT AVBL
$$
...OTHER LOCATIONS IN NEW MEXICO...

CITY           SKY/WX    TMP DP  RH WIND       PRES   REMARKS
ALAMAGORDO     CLEAR     59  55  88 SE3       30.16R
ALBUQUERQUE    MOCLDY    57  55  93 E7        30.21S
CANNON AFB     CLEAR     52  52 100 S5        30.11S
CLOVIS         CLEAR     52  46  82 S6        30.11S
HOLLOMAN AFB   CLEAR     58  58 100 SE3       30.14R
ROSWELL        CLEAR     53  49  86 N5        30.10R
RUIDOSO        MOCLDY    50  50 100 W6        30.29R
SANTA FE       CLEAR     50  42  74 N3        30.25R
TRUTH OR CONSE CLEAR     57  51  80 W3        30.18R
TUCUMCARI      CLEAR     53  49  86 W6        30.08R
$$